Temperature
14 14 13 13 13 13 13 13 13 13 13 13 13 14 14 14 14 13 13 13 13 13 13 13 13 13 13 13 13 13 13 13 12 12 12 12 12 12 12 11 11 11 11
13 13 13 13 13 13 13 13 13 13 13 13 13 13 13 13 13 13 13 13 13 13 13 13 13 13 13 13 13 13 12 12 12 12 12 12 12 12 11 11 11 11 11
13 13 13 13 13 13 13 13 13 13 13 13 13 13 13 13 13 13 13 13 13 13 13 13 13 12 12 12 12 12 12 12 12 12 12 12 12 11 11 11 11 11 11
12 12 12 12 12 12 12 12 12 12 12 12 12 13 13 13 13 13 13 13 13 12 12 12 12 12 12 12 12 12 12 12 12 11 11 11 11 11 11 11 11 11 10
12 12 12 12 12 12 12 12 12 12 12 12 12 12 12 12 12 12 12 12 12 12 12 12 12 12 12 12 12 12 11 11 11 11 11 11 11 11 11 10 10 10 10
12 12 12 11 11 11 11 11 11 11 11 12 12 12 12 12 12 12 12 12 12 12 12 12 12 12 11 11 11 11 11 11 11 11 11 11 11 10 10 10 10 10 9
11 11 11 11 11 11 11 11 11 11 11 11 11 12 12 12 12 12 12 12 12 11 11 11 11 11 11 11 11 11 11 10 10 10 10 10 10 10 10 10 10 9 9
11 11 11 10 11 11 11 10 10 11 11 11 11 10 11 11 11 11 11 11 11 11 11 11 11 11 11 11 11 10 10 10 10 10 10 10 9 9 9 9 9 9 9
10 10 10 10 10 10 10 10 10 10 10 10 10 10 10 10 10 10 11 11 11 11 11 11 11 11 10 10 10 10 10 10 10 10 9 9 9 9 9 9 9 9 9
10 10 10 10 10 10 10 9 9 9 9 9 9 9 9 9 9 9 10 10 10 10 10 10 10 10 10 10 10 10 9 9 9 9 9 9 9 9 9 9 9 9 8
10 10 9 9 9 9 9 9 9 9 9 9 9 9 9 9 9 8 9 9 9 10 10 10 10 10 9 9 9 9 9 9 9 9 9 9 9 8 8 9 8 8 8
9 9 9 9 9 9 9 9 9 9 8 8 8 8 8 8 8 8 8 8 8 9 9 9 9 9 9 9 9 9 9 9 9 8 8 8 8 8 8 8 8 8 8
9 9 9 9 9 9 8 8 8 8 8 8 8 8 8 8 7 7 7 8 8 8 8 8 9 8 9 8 8 8 8 8 8 8 8 8 8 8 8 8 8 8 8
9 8 8 8 8 8 8 8 8 8 8 8 7 7 7 7 7 7 7 7 7 7 7 8 8 8 8 8 8 8 8 8 8 8 8 8 7 7 8 8 8 7 7
8 8 8 8 8 8 8 8 8 8 7 7 7 7 7 7 7 7 7 7 6 6 7 7 7 8 7 7 7 7 7 7 7 7 7 7 7 7 7 7 7 7 7
8 7 7 7 7 7 7 7 7 7 7 7 7 7 7 7 7 6 6 6 6 6 6 6 7 7 7 7 7 7 7 7 7 7 7 7 6 6 7 6 7 7 7
7 7 7 7 7 7 7 7 7 7 7 7 7 7 6 6 6 6 6 6 6 6 6 6 6 6 6 6 6 6 6 6 6 6 6 6 6 6 6 6 6 6 6
7 7 7 7 7 7 6 6 6 6 6 6 6 6 6 6 6 5 5 6 5 5 5 5 6 6 6 6 6 6 6 6 6 6 6 6 6 6 5 5 5 5 5
7 7 7 6 6 6 6 6 6 6 6 6 6 6 6 5 5 5 5 5 5 5 5 5 5 5 5 5 5 5 5 5 5 5 5 5 5 5 5 5 5 5 5
7 7 6 6 6 6 6 6 6 6 6 6 5 5 5 5 5 5 5 5 5 5 5 4 4 5 5 5 5 5 5 5 5 5 5 5 5 5 5 5 5 5 4
6 6 6 6 6 6 6 5 5 5 5 5 5 5 5 5 5 5 5 5 4 4 4 4 4 4 4 4 4 4 4 4 4 4 4 4 4 4 4 4 4 4 4
6 6 6 6 6 5 5 5 5 5 5 5 5 5 5 5 5 5 4 4 4 4 4 4 4 4 4 4 4 4 3 3 3 3 3 4 4 4 4 4 4 3 3
5 5 5 5 5 5 5 5 4 4 4 4 4 4 4 4 4 4 4 4 4 4 3 3 3 4 4 3 3 3 3 2 2 2 2 3 3 3 3 3 3 3 3
5 5 5 5 4 4 4 4 4 4 4 4 4 4 4 4 4 4 4 4 4 3 3 3 3 3 3 3 3 2 2 2 2 2 1 2 3 3 3 2 2 2 2
4 4 4 4 4 4 3 3 3 3 3 4 4 4 3 3 3 3 3 3 3 3 3 3 3 3 3 2 2 2 1 1 1 1 1 1 1 2 2 2 2 2 2
3 3 3 3 3 3 3 3 3 3 3 3 3 3 3 3 3 3 3 3 3 3 3 2 2 2 2 2 2 1 1 0 0 -0 0 0 0 0 0 1 1 1 1
Wind_Speed
2 1 1 1 1 2 2 1 1 1 1 2 2 2 3 4 5 6 7 9 10 10 9 9 9 9 8 8 8 8 7 7 7 6 5 5 4 5 5 6 7 7 7
2 2 1 1 1 2 2 2 2 2 1 1 2 2 3 4 5 6 7 8 10 10 10 10 10 9 8 8 7 7 7 7 8 8 7 6 6 6 7 7 7 8 8
2 2 2 1 1 1 1 2 1 1 1 1 2 3 3 4 4 5 6 7 8 9 10 10 10 9 9 8 7 7 6 6 7 7 7 7 8 8 8 8 9 9 9
2 2 2 1 1 0 0 1 1 1 1 2 2 2 2 3 4 5 5 6 6 7 8 9 9 9 8 8 8 7 7 6 6 7 7 8 8 9 9 10 10 10 10
2 1 1 0 0 0 0 1 1 1 2 2 3 3 3 3 3 3 4 5 5 6 6 6 7 7 7 7 7 7 7 6 6 7 8 8 9 9 10 10 11 11 11
2 2 1 0 0 1 0 0 1 1 1 2 2 3 3 3 2 3 3 3 4 5 5 5 4 5 5 6 6 7 7 6 6 7 8 8 9 9 10 11 11 12 12
2 1 1 0 0 1 2 2 1 1 1 1 1 2 3 2 2 2 2 2 2 3 3 4 4 3 3 4 5 6 7 7 7 8 8 9 9 10 10 11 12 12 13
1 1 0 1 1 1 1 1 1 1 1 0 1 1 2 3 2 2 2 2 3 2 2 3 3 3 3 3 4 6 7 8 9 9 9 9 9 10 11 11 12 12 12
1 1 0 1 1 1 1 2 2 2 2 2 1 2 1 3 2 2 1 2 2 2 2 2 3 3 3 3 4 6 7 9 9 10 10 10 10 11 11 11 12 12 12
2 1 1 1 1 1 1 2 2 2 2 2 2 2 2 2 2 2 2 2 1 2 3 2 3 3 4 4 4 6 7 8 10 10 10 11 11 11 11 11 11 11 12
2 2 1 1 1 1 2 1 1 2 2 2 2 1 2 2 2 3 4 3 2 2 2 3 3 3 3 3 4 6 7 7 9 10 10 11 11 11 11 11 12 12 13
1 1 1 1 1 1 2 2 2 2 2 2 2 2 2 2 2 3 4 3 3 2 2 2 2 2 2 3 4 5 6 7 8 9 10 11 11 11 11 12 12 13 13
2 2 2 2 2 2 2 2 2 3 3 3 3 3 3 3 2 3 3 3 3 2 2 1 1 2 2 2 3 4 5 6 7 9 10 11 11 11 11 11 12 13 13
3 3 2 2 2 2 2 2 2 3 3 3 4 3 3 3 3 3 3 2 3 2 2 3 1 1 2 2 4 4 4 5 7 8 9 9 9 9 10 10 11 12 13
3 3 3 3 3 3 3 2 3 3 3 3 3 4 3 3 2 3 3 3 3 4 4 3 2 1 2 3 3 3 3 5 6 7 7 8 8 8 8 9 10 11 12
4 3 3 3 3 3 3 3 3 3 3 4 3 4 4 3 3 3 3 3 4 4 4 2 2 2 2 2 4 3 4 5 6 6 7 8 8 8 8 8 9 10 11
4 4 5 4 4 4 4 4 4 4 4 4 4 4 5 4 3 3 3 3 4 4 5 3 2 2 2 2 3 4 4 5 5 6 7 7 7 8 8 8 10 11 11
5 5 5 5 5 5 5 5 5 5 5 5 5 5 5 4 4 4 4 4 4 4 4 5 3 2 2 2 2 3 3 4 5 7 7 7 8 8 8 9 10 11 11
5 5 5 6 6 6 5 5 6 6 6 6 6 6 6 5 5 4 4 4 4 3 3 4 3 2 2 1 2 2 2 2 4 6 6 7 7 8 9 9 9 10 10
5 5 6 6 6 6 6 6 6 6 6 6 6 6 6 6 6 5 5 5 4 3 3 3 3 2 2 1 1 2 3 2 3 4 5 5 7 8 8 9 9 9 10
6 6 6 6 6 6 6 6 6 6 6 6 6 6 6 8 8 7 5 5 5 4 3 3 3 2 2 2 2 2 2 3 3 2 3 3 4 4 5 8 9 9 9
5 5 6 6 6 6 9 11 8 6 6 7 7 6 6 7 8 10 10 9 7 6 6 5 4 4 4 3 3 2 2 2 3 1 2 4 2 3 4 5 8 9 9
5 5 6 6 7 8 11 12 11 6 6 7 7 6 5 6 7 5 7 8 8 10 9 6 6 6 5 4 3 3 3 3 4 2 2 4 2 4 4 6 9 9 9
5 5 6 6 6 8 11 12 11 7 6 7 7 7 7 6 6 6 5 5 4 5 6 5 5 5 5 4 4 4 3 2 2 2 1 3 3 4 4 5 8 8 9
5 5 5 6 6 8 11 11 10 5 5 7 7 7 7 7 9 9 6 5 5 4 4 5 5 5 5 4 3 2 1 2 3 2 1 1 2 3 4 4 5 7 9
6 6 6 6 7 8 10 11 10 4 6 6 5 6 9 9 10 10 7 6 7 5 3 2 2 2 2 2 3 3 3 3 2 2 1 1 2 2 3 3 3 4 6
Wind_Direction
160 163 169 175 189 193 190 206 225 240 250 254 248 238 238 236 235 233 235 235 236 237 239 244 243 240 241 239 237 234 232 236 237 235 242 252 261 280 289 288 288 291 291
159 163 172 197 222 220 214 212 225 232 248 247 254 249 247 243 239 238 239 238 237 237 239 244 248 247 247 245 243 240 241 245 243 243 245 249 257 267 277 285 291 293 291
153 165 171 194 251 254 233 229 235 229 241 253 257 257 249 242 236 237 236 235 238 239 239 243 249 253 249 245 244 245 248 249 248 249 254 258 263 267 272 278 282 285 288
156 164 169 202 257 275 242 218 220 245 259 263 266 266 259 250 242 237 232 231 233 237 240 242 249 251 249 247 246 247 248 248 248 253 259 264 268 272 272 274 276 278 282
111 133 164 222 227 196 266 254 262 231 261 272 273 274 267 257 252 243 236 230 229 230 232 238 242 243 244 246 253 255 255 252 253 258 261 265 268 272 274 276 277 277 278
88 101 124 76 187 173 226 261 271 261 253 259 281 283 273 261 250 238 238 233 225 221 219 219 228 234 237 242 252 261 262 260 262 265 267 268 270 273 275 276 277 278 277
46 78 91 132 207 202 226 235 256 268 275 288 302 306 300 274 257 246 236 229 227 222 212 211 216 218 229 233 243 257 263 264 265 266 265 269 272 274 277 278 277 277 279
17 34 117 214 233 226 240 243 239 253 281 187 178 266 311 318 288 258 235 223 232 210 205 214 207 214 219 224 245 259 265 266 268 266 269 271 274 276 277 279 282 283 285
327 329 257 228 249 220 231 251 233 226 253 258 217 192 209 249 297 304 281 243 233 217 223 212 213 222 221 228 248 259 264 267 269 269 269 272 276 279 281 282 284 286 288
326 316 292 258 233 235 240 245 231 237 235 260 266 248 242 224 236 290 300 298 267 236 231 232 223 223 221 228 242 258 266 268 273 276 275 275 277 280 285 288 290 292 293
329 323 306 287 265 257 252 251 248 241 232 240 246 249 253 263 239 244 275 298 306 274 258 244 228 220 222 232 246 259 263 269 277 280 280 278 278 282 286 287 289 291 291
303 300 299 269 255 262 265 260 248 242 246 249 251 236 218 221 226 229 253 271 278 287 293 270 242 234 236 238 248 265 264 273 281 285 285 283 282 284 287 290 291 292 291
278 282 284 268 265 254 257 260 251 247 245 247 247 249 242 236 224 224 243 263 269 284 286 282 246 236 245 247 261 272 274 282 285 287 288 287 286 287 290 290 291 294 295
258 265 262 261 260 259 258 256 256 249 243 244 248 246 249 247 233 227 224 236 270 273 258 259 251 223 263 259 264 265 282 288 289 289 290 291 292 292 292 290 292 294 295
261 257 253 254 258 257 251 246 250 252 244 241 244 245 248 249 240 238 229 220 228 258 262 241 242 249 264 257 267 274 283 289 294 296 295 296 296 295 291 293 295 296 296
251 256 259 254 255 257 252 245 250 249 244 249 242 240 244 245 240 235 232 233 228 236 256 243 239 254 249 271 277 277 276 285 289 292 294 296 299 299 294 298 300 301 300
245 245 248 249 249 249 246 242 245 245 248 256 251 240 243 239 238 237 232 232 234 230 252 266 250 254 239 261 294 295 287 279 282 287 291 295 298 296 296 301 301 299 299
247 245 246 248 249 247 242 238 247 245 242 249 251 246 245 240 240 236 230 231 231 223 233 256 258 245 247 258 271 282 293 289 284 287 287 292 292 291 296 300 300 299 299
252 250 243 245 248 248 245 240 239 243 241 241 241 240 243 236 241 239 235 235 233 231 226 242 257 247 257 268 288 286 280 285 294 292 290 292 293 294 299 301 301 301 302
248 248 246 245 245 245 243 240 237 241 244 243 239 238 238 232 235 235 237 237 231 230 233 240 250 253 253 254 248 273 292 294 300 304 298 298 298 298 301 303 304 304 306
250 247 248 250 247 243 242 238 236 238 241 244 242 238 237 236 234 232 233 230 220 225 228 236 247 256 252 246 246 243 269 302 296 289 303 302 298 296 301 302 302 302 305
257 253 250 249 249 250 253 250 243 235 237 239 241 240 239 240 241 242 242 236 223 219 222 226 238 245 250 243 238 240 259 297 290 283 296 295 281 284 286 294 299 303 306
261 259 258 254 256 258 260 259 253 241 235 237 236 238 242 237 236 236 244 244 240 236 227 215 227 236 237 228 216 233 238 248 257 277 297 287 294 290 293 300 302 303 306
257 257 258 255 256 261 263 261 259 249 241 239 233 231 234 238 230 225 225 230 236 244 239 226 223 231 230 220 210 222 233 255 276 276 248 272 296 288 299 300 301 306 309
262 260 257 253 253 262 264 262 258 244 246 246 237 231 229 233 238 231 217 222 234 249 250 232 227 229 230 228 207 177 196 260 283 278 214 251 288 298 294 288 305 315 317
259 261 261 253 251 257 265 264 256 239 246 247 242 235 236 235 236 228 212 211 228 237 212 211 228 243 244 233 224 209 203 228 257 265 217 230 280 320 311 289 290 317 322
Height
1516 1517 1519 1520 1521 1522 1523 1524 1525 1525 1526 1527 1528 1528 1529 1530 1531 1531 1532 1533 1534 1535 1535 1536 1537 1537 1537 1537 1537 1537 1537 1537 1537 1536 1536 1535 1535 1534 1534 1533 1532 1531 1531
1514 1515 1516 1517 1518 1519 1520 1521 1522 1523 1523 1524 1525 1525 1526 1527 1527 1528 1529 1530 1531 1532 1532 1533 1533 1534 1534 1534 1534 1534 1534 1534 1533 1533 1533 1532 1532 1531 1531 1530 1529 1529 1528
1512 1513 1514 1515 1516 1517 1518 1518 1519 1520 1520 1521 1522 1522 1523 1523 1524 1525 1525 1526 1527 1528 1529 1529 1530 1530 1531 1531 1531 1531 1530 1530 1530 1530 1530 1529 1529 1528 1528 1527 1526 1525 1524
1509 1510 1511 1512 1513 1514 1515 1515 1516 1516 1517 1518 1518 1519 1519 1520 1520 1521 1522 1522 1523 1524 1525 1525 1526 1527 1527 1527 1527 1527 1527 1527 1526 1526 1526 1526 1525 1525 1524 1523 1522 1521 1521
1507 1508 1509 1509 1510 1511 1511 1512 1513 1513 1514 1514 1515 1515 1515 1516 1516 1517 1518 1518 1519 1520 1521 1521 1522 1522 1523 1523 1523 1523 1523 1522 1522 1522 1522 1522 1521 1521 1520 1519 1518 1517 1517
1504 1505 1506 1506 1507 1508 1508 1509 1510 1510 1511 1511 1511 1511 1511 1512 1512 1513 1513 1514 1515 1516 1516 1517 1518 1518 1518 1519 1519 1519 1519 1518 1518 1518 1518 1517 1517 1516 1516 1515 1514 1513 1512
1501 1502 1503 1503 1504 1504 1505 1506 1507 1507 1507 1508 1508 1507 1507 1508 1508 1508 1509 1510 1510 1511 1512 1513 1513 1514 1514 1514 1514 1514 1514 1514 1514 1514 1514 1513 1512 1512 1511 1510 1510 1508 1508
1499 1499 1500 1501 1501 1501 1502 1502 1503 1504 1504 1504 1505 1504 1503 1504 1503 1504 1505 1505 1506 1507 1507 1508 1509 1509 1510 1510 1510 1510 1510 1509 1509 1509 1509 1508 1508 1508 1507 1506 1505 1504 1503
1496 1497 1497 1497 1498 1498 1498 1499 1500 1500 1500 1501 1501 1502 1501 1500 1500 1500 1500 1501 1502 1502 1503 1504 1504 1505 1505 1505 1505 1505 1505 1505 1505 1504 1504 1503 1503 1503 1502 1501 1501 1499 1498
1494 1494 1495 1495 1495 1495 1495 1495 1496 1497 1497 1497 1498 1498 1499 1498 1498 1496 1497 1497 1498 1498 1499 1499 1500 1500 1501 1501 1501 1501 1501 1500 1500 1499 1499 1499 1498 1498 1497 1497 1496 1495 1493
1491 1492 1492 1492 1492 1492 1492 1492 1492 1493 1493 1493 1494 1494 1494 1494 1494 1494 1492 1492 1493 1494 1495 1495 1495 1496 1496 1496 1496 1495 1495 1495 1495 1494 1494 1494 1493 1493 1492 1491 1490 1489 1488
1489 1489 1488 1488 1488 1489 1489 1489 1489 1489 1489 1489 1490 1490 1490 1490 1490 1490 1489 1489 1489 1489 1490 1490 1491 1491 1491 1491 1491 1491 1490 1490 1490 1489 1489 1488 1488 1487 1487 1486 1485 1484 1483
1485 1486 1485 1485 1485 1485 1485 1485 1485 1485 1485 1485 1485 1486 1486 1486 1487 1487 1486 1485 1484 1484 1485 1485 1486 1486 1486 1486 1486 1486 1485 1485 1485 1484 1484 1483 1482 1482 1481 1480 1479 1478 1477
1482 1482 1482 1482 1482 1482 1481 1481 1481 1481 1481 1481 1481 1481 1481 1482 1482 1482 1482 1482 1480 1480 1480 1480 1481 1481 1482 1482 1481 1481 1481 1480 1480 1479 1478 1477 1477 1476 1475 1474 1474 1473 1472
1479 1479 1478 1478 1478 1478 1478 1478 1477 1477 1477 1477 1477 1477 1477 1477 1477 1478 1478 1478 1479 1476 1475 1476 1476 1477 1477 1477 1477 1476 1476 1475 1475 1474 1473 1472 1471 1471 1470 1469 1468 1467 1466
1475 1475 1474 1474 1474 1474 1474 1474 1473 1473 1473 1473 1473 1473 1472 1472 1473 1473 1473 1474 1474 1473 1471 1471 1472 1472 1473 1472 1472 1472 1471 1470 1470 1469 1468 1467 1466 1465 1464 1463 1462 1461 1460
1472 1471 1471 1470 1470 1470 1470 1469 1469 1468 1468 1468 1468 1468 1468 1468 1468 1468 1469 1469 1469 1469 1468 1467 1468 1468 1468 1468 1467 1467 1466 1466 1465 1464 1463 1462 1461 1460 1459 1457 1456 1455 1454
1468 1467 1466 1466 1465 1465 1465 1464 1464 1464 1463 1463 1463 1463 1463 1464 1464 1464 1464 1464 1464 1464 1464 1462 1463 1463 1463 1463 1462 1462 1461 1460 1460 1459 1458 1457 1456 1455 1454 1452 1451 1450 1448
1463 1463 1462 1461 1461 1460 1460 1460 1459 1459 1459 1458 1458 1458 1458 1458 1458 1459 1459 1459 1459 1459 1459 1458 1458 1458 1458 1458 1457 1457 1456 1455 1455 1454 1453 1452 1451 1450 1448 1447 1445 1444 1443
1458 1457 1457 1456 1455 1455 1455 1454 1454 1454 1453 1453 1453 1453 1453 1453 1453 1454 1454 1454 1454 1454 1454 1453 1453 1453 1453 1452 1452 1451 1451 1450 1449 1449 1447 1447 1445 1444 1443 1442 1440 1439 1438
1453 1452 1451 1451 1450 1450 1449 1449 1449 1448 1448 1448 1448 1448 1448 1448 1448 1449 1449 1449 1449 1449 1449 1448 1448 1448 1448 1447 1447 1446 1445 1444 1443 1443 1442 1441 1440 1439 1438 1436 1435 1434 1432
1448 1447 1446 1445 1445 1444 1444 1443 1443 1442 1442 1442 1442 1442 1443 1443 1443 1443 1444 1444 1444 1444 1443 1443 1443 1443 1443 1443 1442 1441 1440 1439 1438 1438 1436 1436 1435 1433 1432 1431 1430 1429 1428
1442 1441 1440 1440 1439 1438 1438 1437 1437 1437 1436 1436 1436 1437 1437 1437 1438 1438 1438 1438 1438 1439 1439 1439 1438 1438 1438 1438 1437 1436 1436 1435 1433 1433 1432 1429 1430 1428 1427 1426 1425 1424 1423
1437 1436 1435 1434 1433 1432 1432 1432 1431 1430 1430 1430 1430 1430 1431 1431 1432 1432 1432 1432 1433 1433 1433 1433 1433 1433 1433 1433 1432 1432 1431 1430 1429 1429 1427 1425 1424 1423 1422 1421 1420 1419 1418
1431 1430 1429 1428 1427 1426 1426 1426 1425 1424 1423 1423 1424 1424 1424 1425 1426 1426 1426 1426 1427 1427 1428 1428 1428 1428 1428 1428 1427 1427 1426 1425 1424 1423 1423 1421 1419 1418 1417 1416 1415 1414 1413
1425 1424 1423 1422 1421 1420 1420 1420 1419 1418 1417 1417 1417 1418 1418 1419 1420 1420 1420 1421 1421 1421 1422 1422 1423 1423 1423 1422 1422 1422 1422 1421 1420 1419 1418 1417 1416 1414 1412 1410 1410 1409 1408